Probability
0 0 0 0 0 0 0 0 0 0 0 0 1 2 4 6 7 6 3 1 0 1 2 2 4 6 8 9 8 6 5 5 4 1 0 0 0 1 2 2 2 1 0 0
0 0 0 0 0 0 0 0 0 0 0 0 1 3 4 5 6 5 3 1 0 1 2 3 5 6 7 7 7 7 6 6 4 1 0 1 1 1 1 1 1 0 0 0
0 0 0 0 0 0 0 0 0 0 0 0 1 3 4 4 4 4 3 2 1 0 1 3 4 5 6 6 7 7 7 6 5 2 1 2 2 2 1 0 0 0 0 0
0 0 0 0 0 0 0 0 0 0 0 0 1 3 3 3 3 3 3 2 1 0 1 2 3 4 5 6 6 6 5 5 5 4 4 3 3 2 1 0 0 0 0 0
0 0 0 0 0 0 0 0 0 0 0 0 1 2 3 3 3 3 3 2 1 0 1 2 3 3 4 5 5 4 3 3 4 5 5 4 2 1 0 0 0 0 0 0
0 0 0 0 0 0 0 0 0 0 0 0 1 2 2 2 2 2 2 1 0 0 0 1 2 3 4 5 5 3 2 2 3 4 4 3 1 0 0 0 0 0 0 0
0 0 0 0 0 0 0 0 0 0 0 0 0 1 1 0 0 0 0 0 0 0 0 0 1 3 4 5 4 3 2 3 3 3 2 1 0 0 0 0 0 0 0 0
0 0 0 0 0 0 0 0 0 0 0 0 0 0 0 0 0 0 0 0 0 0 0 1 1 2 2 3 3 3 3 3 2 1 1 0 0 0 0 0 0 0 0 0
0 0 0 0 0 0 0 0 0 0 0 0 0 0 0 0 0 0 0 0 0 0 0 1 1 1 1 2 3 3 2 1 1 0 0 0 0 0 0 0 0 0 0 0
0 0 0 0 0 0 0 0 0 0 0 0 0 0 1 1 1 1 0 0 0 0 0 1 1 0 1 2 3 2 1 0 0 0 0 0 0 0 0 0 0 0 0 0
0 0 0 0 0 0 0 0 0 0 0 0 0 0 1 2 2 2 1 0 0 0 0 0 0 0 1 2 2 1 0 0 0 0 0 0 0 0 0 0 0 0 0 0
0 0 0 0 0 0 0 0 0 0 0 0 0 0 1 2 3 2 1 0 0 0 0 0 0 0 0 1 1 0 0 0 0 0 0 0 0 0 0 0 0 0 0 0
0 0 0 0 0 0 0 0 0 0 0 0 0 0 0 1 2 2 1 0 0 0 0 0 0 0 0 0 0 0 0 0 0 0 0 0 0 0 0 0 0 0 0 0
0 0 0 0 0 0 0 0 0 0 0 1 0 0 0 0 1 1 0 0 0 0 0 0 0 0 0 0 0 0 0 0 0 0 0 0 0 0 0 0 0 0 0 0
0 0 0 0 0 0 0 0 0 0 0 0 0 0 0 0 0 0 0 0 0 0 0 0 0 0 0 0 0 0 0 0 0 0 0 0 0 0 0 0 0 0 0 0
0 0 0 0 0 0 0 0 0 0 0 0 0 0 0 0 0 0 0 0 0 0 0 0 0 0 0 0 0 0 0 0 0 0 0 0 0 0 0 0 0 0 0 0
0 0 0 0 0 0 0 0 0 0 0 0 0 0 0 0 0 0 0 0 0 0 0 0 0 0 0 0 0 0 0 0 0 0 0 0 0 0 0 0 0 0 0 0
0 0 0 0 0 0 0 0 0 0 0 0 0 0 0 0 0 0 0 0 0 0 0 0 0 0 0 0 0 0 1 0 0 0 0 0 0 0 0 0 0 0 0 0
0 0 0 0 0 0 0 0 0 0 0 0 0 0 0 0 0 0 0 0 0 0 0 0 0 0 0 0 0 0 0 0 0 0 0 0 0 0 0 0 0 0 0 0
0 0 0 0 0 0 0 0 0 0 0 0 0 0 0 0 0 0 0 0 0 0 0 0 0 0 0 0 0 0 0 0 0 0 0 0 0 0 0 0 0 0 0 0
0 0 0 0 0 0 0 0 0 0 0 0 0 0 0 0 0 0 0 0 0 0 0 0 0 0 0 0 0 0 0 0 0 0 0 0 0 0 0 0 0 0 0 0
0 0 0 0 0 0 0 0 0 0 0 0 0 0 0 0 0 0 0 0 0 0 0 0 0 0 0 0 0 0 0 0 0 0 0 0 0 0 0 0 0 0 0 0
0 0 0 0 0 0 0 0 0 0 0 0 0 0 0 0 0 0 0 0 0 0 0 0 0 0 0 0 0 0 0 0 0 0 0 0 0 0 0 0 0 0 0 0
0 0 0 0 0 0 0 0 0 0 0 0 0 0 0 0 0 0 0 0 0 0 0 0 0 0 0 0 0 0 0 0 0 0 0 0 0 0 0 0 0 0 0 0
0 0 0 0 0 0 0 0 0 0 0 0 0 0 0 0 0 0 0 0 0 0 0 0 0 0 0 0 0 0 0 0 0 0 0 0 0 0 0 0 0 0 0 0
1 0 0 0 0 0 0 0 0 0 0 0 0 0 0 0 0 0 0 0 0 0 0 0 0 0 0 0 0 0 0 0 0 0 0 0 0 0 0 0 0 0 0 0
1 1 0 0 0 0 0 0 0 0 0 0 0 0 0 0 0 0 0 0 0 0 0 0 0 0 0 0 0 0 0 0 0 0 0 0 0 0 0 0 0 0 0 0
Wind_Speed
6 7 5 5 7 5 3 6 6 7 6 8 7 7 6 6 6 7 7 8 8 7 5 4 5 5 5 5 5 5 5 5 5 4 3 3 2 2 2 2 2 1 1 1
5 5 6 7 7 5 3 3 4 4 6 5 4 4 5 6 9 9 8 8 8 7 6 6 6 6 5 5 4 5 5 5 5 4 3 3 3 2 2 1 1 1 1 2
4 6 5 5 5 3 2 2 4 5 5 3 3 5 7 7 8 8 7 7 7 6 6 6 6 6 6 5 4 4 4 4 4 4 4 3 3 2 2 2 1 2 2 2
2 3 4 6 3 0 0 1 1 2 3 4 5 6 5 5 6 6 6 6 6 5 5 4 4 4 5 5 5 4 4 4 4 4 4 3 2 2 2 2 2 2 3 3
1 2 6 6 3 2 1 2 1 3 3 2 4 5 2 1 4 5 6 5 5 5 4 4 5 5 5 4 4 4 3 4 4 4 3 3 3 3 2 2 2 3 3 3
2 2 5 6 4 2 2 2 2 3 4 4 5 2 3 2 5 6 6 5 4 4 3 4 4 5 5 4 4 3 3 4 4 3 3 3 3 2 2 2 2 3 3 3
3 4 7 6 4 2 1 6 3 3 5 4 3 4 4 6 6 6 6 5 5 5 4 4 4 5 5 4 4 4 3 3 3 3 2 3 2 2 2 2 2 3 3 4
3 3 7 4 2 1 5 2 2 3 4 4 3 4 5 7 7 7 6 5 5 4 3 3 4 5 5 4 4 3 3 3 3 2 2 1 2 2 2 2 2 3 3 5
5 7 6 3 2 3 2 2 2 3 3 5 5 5 6 6 6 5 5 5 4 4 3 3 4 5 5 4 4 4 3 2 2 2 1 1 2 2 2 2 2 3 3 4
2 5 4 2 0 0 1 1 2 4 5 6 5 6 5 6 5 5 4 4 3 4 4 4 4 4 5 4 4 4 4 2 2 1 2 2 2 2 2 3 3 3 4 4
5 5 3 2 1 1 1 2 3 5 5 6 6 6 5 5 5 4 3 3 3 3 4 5 4 4 4 4 5 4 3 2 2 2 2 2 3 3 4 4 5 5 4 4
7 6 3 5 4 2 2 3 4 5 4 5 6 6 5 5 4 4 4 3 3 3 4 4 4 4 4 4 5 5 3 2 2 2 2 2 2 4 5 6 9 9 8 7
6 5 4 4 4 2 3 3 5 6 7 6 5 6 6 4 4 4 3 3 3 4 4 4 4 3 3 4 5 5 4 3 2 2 2 3 3 3 4 6 7 8 8 8
4 2 2 3 4 3 3 4 5 6 6 6 5 6 6 4 4 4 4 3 3 3 3 4 4 4 4 4 4 4 4 4 3 3 3 3 3 3 3 3 4 5 6 6
5 5 5 3 3 3 4 6 6 6 6 5 6 6 6 5 5 4 3 3 3 3 3 4 4 4 4 4 4 4 3 3 3 3 3 3 3 3 3 3 3 3 4 5
3 3 5 5 5 5 6 7 6 6 6 5 5 6 6 6 5 3 3 4 4 4 3 3 4 4 3 4 4 3 3 5 4 2 2 3 3 3 3 3 3 3 4 4
4 4 5 5 5 6 6 6 7 6 6 6 6 6 6 5 4 3 3 4 4 4 4 4 4 3 3 3 4 3 2 3 4 3 3 3 3 3 3 3 3 4 4 4
7 7 7 8 7 6 6 6 7 7 7 6 7 6 6 6 5 5 4 3 3 2 3 4 4 3 2 2 3 2 2 2 2 2 3 3 4 3 3 3 4 4 4 3
7 7 7 7 7 7 6 6 7 7 7 7 7 6 5 5 5 4 4 4 3 3 4 4 5 3 2 3 3 2 2 2 2 3 3 4 4 3 3 3 3 3 3 2
7 7 7 6 6 7 7 6 7 6 6 6 6 5 5 4 5 4 4 3 4 5 5 4 3 3 3 3 3 2 2 3 3 3 3 3 3 3 3 2 2 2 2 2
6 7 7 7 6 7 8 8 7 7 6 6 6 6 5 4 4 4 4 2 4 4 4 5 3 2 2 2 3 2 2 2 3 3 3 3 3 2 2 2 2 2 2 2
5 6 7 7 7 6 6 6 7 7 6 5 5 5 5 4 4 4 4 4 5 5 3 3 2 3 4 3 2 2 2 2 2 2 2 2 2 2 2 2 2 2 2 2
4 6 7 8 8 7 6 6 6 6 6 6 6 6 6 5 4 4 4 4 4 5 4 3 4 5 5 3 1 1 2 2 2 2 1 1 1 1 2 2 1 1 2 2
4 6 7 7 7 6 5 5 4 4 5 5 5 6 6 4 3 4 4 5 6 6 4 4 5 6 5 2 1 1 1 1 1 1 1 1 1 1 1 1 1 1 1 1
5 6 7 8 7 5 5 4 4 4 4 3 4 5 5 5 5 4 4 5 7 6 3 4 6 6 4 2 2 1 1 0 0 0 0 1 1 1 1 1 1 1 1 2
5 6 6 6 5 5 4 4 3 3 3 3 3 3 3 2 3 3 3 4 6 6 4 3 3 4 3 2 2 1 1 0 0 0 0 1 1 1 1 1 2 2 2 2
5 5 4 4 3 4 4 4 4 4 4 4 3 3 3 3 3 3 4 3 4 3 3 3 3 3 3 3 2 2 1 1 1 1 0 0 0 1 1 1 1 1 1 1
Wind_Direction
256 266 270 281 284 280 224 202 208 240 232 237 221 199 183 169 164 160 162 165 164 164 165 166 166 168 168 171 173 169 165 173 189 199 196 196 206 221 237 246 247 249 253 283
300 297 304 299 294 288 263 218 207 227 254 240 196 169 167 168 172 174 177 175 172 170 168 166 170 171 168 170 172 167 171 184 192 194 193 199 213 221 228 250 260 272 268 268
291 309 332 297 277 267 262 229 197 219 230 170 149 183 186 184 184 180 179 175 174 174 175 174 176 172 171 168 165 167 177 185 190 192 194 200 206 199 213 240 269 276 277 274
279 352 265 251 275 212 151 303 170 160 159 160 180 188 172 168 167 169 168 166 167 168 169 172 168 164 161 158 163 171 184 189 191 191 198 202 195 206 229 239 248 256 264 272
161 247 276 288 276 238 201 289 198 152 156 132 120 88 60 143 146 152 153 150 157 167 163 164 161 161 156 159 163 173 185 191 192 187 186 190 204 226 237 234 266 266 263 265
166 208 250 258 284 279 99 293 280 155 156 146 122 123 236 180 135 129 129 133 139 144 143 157 165 153 150 162 167 183 196 196 191 184 181 196 215 233 236 239 262 277 274 266
192 222 259 264 287 353 137 243 245 168 158 155 168 194 180 144 133 135 136 142 146 148 156 170 163 145 150 164 187 200 190 179 177 181 192 205 215 227 236 256 288 294 290 289
173 214 253 287 10 151 221 239 169 159 160 148 139 129 129 135 139 141 143 148 153 152 166 173 157 147 155 180 198 186 169 168 180 199 217 204 214 255 265 264 283 291 295 301
197 219 243 262 213 223 171 160 181 167 159 145 139 144 140 143 148 151 153 156 156 153 164 178 166 159 170 198 187 167 162 178 199 219 240 234 231 253 271 268 260 275 278 281
274 270 275 292 290 167 140 177 191 161 141 138 146 148 146 150 152 151 152 156 154 151 170 185 185 176 185 192 172 158 166 188 204 216 260 274 264 248 247 253 258 268 272 272
280 277 320 324 249 274 335 100 123 132 134 140 142 146 150 151 155 157 153 158 155 167 181 188 187 188 190 182 160 159 174 191 215 230 241 264 271 256 246 244 234 234 251 250
239 237 225 255 244 224 171 161 153 139 131 139 143 150 144 148 158 155 155 157 164 178 176 181 178 185 194 180 158 158 173 200 223 240 261 262 273 299 293 270 270 261 253 249
229 236 235 238 234 207 169 163 156 146 145 145 144 146 143 147 153 151 155 161 181 184 175 171 171 181 194 178 164 166 179 202 219 235 251 261 261 265 291 307 302 289 276 269
208 197 245 235 219 189 157 147 135 128 133 139 138 138 138 141 153 160 171 185 180 166 163 167 172 189 197 176 169 180 194 211 218 232 244 252 258 258 253 265 292 304 302 284
223 197 196 183 155 152 145 134 129 130 132 133 136 141 147 152 163 175 178 163 142 148 168 169 174 204 203 178 177 192 206 224 233 244 254 256 261 267 269 265 264 281 299 305
196 154 144 144 155 155 147 143 143 150 147 145 148 156 161 160 161 169 163 150 146 167 187 180 191 209 200 182 183 199 217 235 239 240 259 270 272 274 276 273 275 275 277 282
162 162 154 157 163 162 162 162 159 155 151 151 160 163 156 150 148 158 169 170 168 183 193 189 202 205 186 183 187 202 218 242 254 256 257 259 263 263 260 264 269 269 271 278
188 182 174 170 170 167 164 160 154 153 157 167 162 157 157 159 167 180 186 171 156 177 205 200 197 190 196 202 200 205 216 238 251 252 257 264 266 266 267 268 270 274 284 294
181 176 172 167 167 164 161 159 158 159 162 161 161 167 171 173 177 181 173 158 163 195 230 221 200 190 212 228 209 205 217 238 259 267 266 271 276 274 269 268 272 276 282 287
171 168 164 157 151 150 150 152 151 153 159 159 159 160 168 179 178 171 165 178 201 209 213 206 194 199 218 223 202 199 217 236 253 270 278 274 274 277 274 275 276 273 277 271
167 164 157 152 148 148 151 152 153 157 160 160 162 170 178 183 176 165 157 205 247 224 206 199 193 207 213 203 195 205 227 245 259 268 273 273 280 284 288 291 286 280 283 286
168 159 153 149 144 148 154 153 154 156 159 165 169 168 166 173 175 175 188 202 219 209 194 192 199 206 204 195 195 219 242 258 266 270 276 281 285 291 291 284 280 288 292 291
166 157 149 149 150 150 147 150 156 159 166 175 177 177 179 184 180 176 211 227 205 197 188 196 203 202 203 194 199 224 247 261 271 275 280 285 289 292 292 292 294 300 309 313
156 148 145 146 138 138 148 163 165 170 175 179 184 183 177 180 204 211 206 204 197 191 191 199 200 200 197 189 197 220 241 262 280 289 297 311 315 309 306 305 303 299 307 322
154 145 143 145 147 159 166 168 168 172 174 187 198 197 188 183 191 208 200 193 188 185 193 197 195 193 184 182 194 215 239 244 264 74 13 337 333 324 319 324 326 339 350 355
159 154 158 164 164 165 166 166 172 180 175 185 202 198 185 183 184 178 175 179 177 176 180 183 181 176 173 177 175 182 185 184 259 161 317 320 334 335 336 352 10 19 24 19
156 149 146 149 161 167 166 167 173 183 180 176 183 196 181 177 178 175 168 163 163 167 174 174 166 161 162 162 162 171 173 170 174 182 230 311 327 330 3 34 29 37 35 26